RH
14 13 16 21 23 24 24 23 23 23 23 23 23 23 22 24 25 24 24 24 26 23 14 10 9 5 3 3 2 2 1 2 2 2 6 12 14 15 15 14 13 8 5 5 11 22 29 33 32 32 36 36 40 54 67 65 64 74 88 97 91 95 98 91 92 88 85 83 83 75 68 86 76 54 54 44 40 40 42 43 42 43 44 50 53 57 60 62
13 13 17 21 23 24 23 23 23 23 23 23 23 23 22 23 25 24 22 22 25 20 13 14 11 5 2 3 2 1 2 1 3 9 12 17 21 19 16 12 10 6 5 5 9 22 30 32 32 33 35 34 38 53 66 64 65 75 87 93 85 90 95 86 86 84 78 75 78 73 65 78 74 62 55 49 51 41 37 41 40 44 47 51 52 57 61 63
13 13 17 21 23 24 23 23 23 23 23 23 22 22 21 21 23 24 22 22 22 16 13 17 14 6 3 2 2 5 11 14 18 24 23 22 24 21 16 10 8 6 4 4 10 27 34 32 35 36 35 34 40 52 62 66 68 70 77 89 82 80 89 83 80 78 69 67 76 74 68 75 71 63 56 56 59 45 39 42 43 48 48 52 57 60 63 64
11 13 17 21 24 24 23 23 23 23 22 22 21 21 21 20 21 22 22 22 20 15 14 18 14 8 6 3 6 15 25 31 29 27 23 18 18 16 12 8 8 6 5 8 16 31 33 29 30 32 29 30 45 54 59 67 68 69 73 81 75 71 82 77 73 76 71 68 69 69 72 77 67 60 56 54 59 52 47 44 44 50 48 50 55 61 64 65
8 12 16 20 23 24 23 23 22 22 22 21 21 20 20 19 19 20 21 21 20 17 15 17 15 12 10 7 12 19 27 36 31 23 18 14 12 11 10 8 7 4 7 17 26 32 29 24 22 25 19 20 50 61 57 59 58 65 65 65 69 69 75 70 68 75 73 67 63 65 75 74 63 63 59 53 61 58 49 45 44 47 47 48 50 56 61 63
7 9 13 19 23 24 23 23 22 22 22 21 20 20 19 18 19 19 19 20 20 18 15 16 15 14 14 12 16 18 24 35 30 23 19 14 11 9 9 8 5 4 11 21 28 27 21 19 19 23 16 12 45 58 50 52 50 58 61 61 65 65 70 69 70 75 69 61 61 68 71 67 65 70 65 54 57 54 46 46 45 46 46 47 49 51 53 57
6 7 11 16 21 24 23 23 23 22 22 20 20 19 18 17 18 19 18 19 19 17 16 15 15 14 15 16 18 21 25 29 26 25 22 15 11 8 7 7 4 5 13 19 22 22 15 16 18 19 14 9 27 33 35 49 47 52 62 62 61 64 74 72 70 71 66 61 59 63 65 65 69 73 71 57 55 55 49 47 45 45 45 45 48 50 50 51
7 6 8 13 19 23 23 23 23 22 21 20 20 18 18 17 17 18 17 18 17 17 15 15 16 14 16 16 17 28 30 23 23 26 21 15 10 6 6 5 4 6 12 15 14 15 12 15 14 11 12 10 13 12 24 46 46 49 58 60 64 72 78 73 68 65 64 63 59 62 67 69 68 69 71 57 57 61 51 47 45 44 45 45 47 49 49 50
10 6 6 9 16 22 23 23 23 22 21 20 20 18 18 17 17 18 17 17 16 17 15 15 16 14 17 15 19 36 30 17 22 24 18 15 8 5 5 4 5 6 10 12 11 12 13 13 8 7 9 6 8 11 25 46 47 47 53 61 72 77 74 68 68 68 67 67 66 72 78 77 69 67 66 53 57 61 50 48 45 42 45 44 47 48 49 50
12 8 5 6 11 18 22 23 23 21 20 20 20 19 18 17 17 17 16 16 16 16 16 15 16 15 17 15 25 38 23 12 21 21 18 16 9 7 10 9 9 10 11 11 10 11 12 10 7 7 6 5 9 8 17 35 43 47 54 66 76 76 72 67 68 72 74 72 72 80 86 83 72 70 68 54 56 57 51 51 45 43 44 42 46 48 48 49
14 10 7 4 6 13 18 23 22 20 20 20 20 19 18 17 17 17 16 16 15 15 16 15 15 16 17 16 26 32 16 12 18 18 19 16 12 12 15 16 15 14 13 11 11 12 12 10 10 7 5 7 8 7 15 30 42 52 61 72 78 74 69 68 74 76 74 75 74 78 85 81 77 80 70 55 57 55 52 53 45 44 43 41 45 45 46 48
14 12 9 5 4 8 14 19 20 19 19 19 19 19 18 17 16 16 16 15 15 15 15 16 16 16 17 17 22 22 13 14 16 16 18 16 14 14 14 14 15 15 14 13 12 12 12 11 10 7 6 7 7 10 19 34 48 57 64 76 83 79 73 71 78 79 74 78 75 72 81 85 87 84 63 54 60 55 51 52 48 45 42 41 43 44 46 46
11 12 10 6 4 5 9 15 17 17 18 18 18 18 17 16 15 15 15 15 15 15 15 15 16 16 20 20 19 17 14 14 15 16 17 16 16 16 14 13 13 13 13 13 13 12 12 11 9 7 7 6 8 9 11 32 56 62 64 76 85 88 84 75 78 82 77 79 74 69 85 94 91 79 61 60 62 54 51 50 50 47 41 41 42 42 44 44
10 10 11 8 4 4 7 11 15 16 16 17 17 16 16 15 14 14 15 15 14 15 15 15 15 18 24 24 21 19 16 14 15 15 15 16 17 17 16 14 13 12 11 11 11 12 11 10 8 7 7 6 8 7 8 25 49 63 66 73 84 90 89 79 80 85 82 83 75 69 88 95 86 74 62 65 63 54 53 48 49 49 42 42 42 41 42 42
14 10 9 9 5 3 5 9 14 16 15 15 14 15 15 14 13 14 14 14 14 15 14 15 17 21 27 26 21 19 16 14 14 14 15 15 15 17 16 15 13 11 10 9 9 10 10 9 7 7 6 7 7 7 13 17 29 55 69 74 82 85 89 85 81 84 83 89 81 71 88 93 82 73 62 65 65 56 54 48 46 48 45 45 42 41 42 42
21 14 9 9 7 4 4 8 13 15 15 14 13 14 14 13 13 14 15 13 13 14 15 17 19 23 29 26 19 18 16 14 13 13 14 12 13 15 14 14 14 12 9 8 8 8 8 8 6 7 6 7 10 13 20 20 21 37 52 72 81 79 90 92 82 81 81 91 90 81 90 89 76 71 66 67 65 57 56 50 44 45 47 49 45 41 44 46
23 20 13 9 7 5 3 8 13 14 15 14 13 15 16 16 15 14 13 12 14 14 14 17 20 24 28 24 19 17 15 12 10 12 12 10 12 14 12 12 12 11 8 7 7 6 7 7 6 9 8 11 14 17 22 24 25 21 30 62 72 69 87 93 83 81 81 87 93 93 97 88 76 77 76 71 66 60 59 54 48 47 48 50 47 43 47 49
19 21 18 11 7 5 3 7 12 14 14 15 15 17 19 18 18 18 16 14 16 17 20 25 26 25 23 20 18 14 11 11 10 11 11 10 11 11 10 10 10 10 8 7 6 6 7 6 7 11 14 15 14 17 22 22 22 17 24 51 63 67 82 84 78 79 83 86 88 95 100 90 82 84 84 77 68 64 63 59 55 51 50 53 49 45 48 50
13 17 19 14 8 6 4 6 12 14 14 16 17 17 18 16 17 20 19 17 18 19 23 29 27 22 19 17 13 9 8 10 9 9 10 10 9 9 10 10 10 10 7 7 7 5 6 8 11 15 16 16 14 16 18 16 15 13 19 39 58 72 78 74 74 74 79 86 88 94 96 88 85 89 91 84 72 67 69 66 61 55 50 52 51 47 50 50
10 11 16 16 11 6 4 5 11 14 13 15 16 15 17 16 17 19 18 17 17 16 17 19 20 19 18 15 11 9 10 9 9 9 10 10 9 9 10 10 11 10 7 8 8 5 7 12 16 17 15 15 14 13 14 13 12 11 16 33 51 64 64 65 74 76 73 80 86 88 87 85 85 90 92 86 77 74 78 74 67 60 50 49 51 51 55 54
9 8 11 16 13 7 4 4 10 14 14 14 15 16 17 18 19 19 17 16 14 13 14 14 16 16 16 14 10 9 10 10 10 9 9 9 9 9 9 10 11 11 9 8 8 7 9 15 16 15 14 13 12 12 13 12 12 10 12 28 47 58 60 60 72 81 73 71 78 82 84 83 81 87 90 87 83 81 83 79 71 64 54 50 52 55 59 59
10 7 8 13 14 9 4 3 9 14 13 13 15 15 16 17 18 18 17 16 13 11 11 12 14 15 14 13 11 10 10 11 10 9 9 9 8 9 10 10 11 12 11 9 10 11 14 16 14 12 12 12 12 11 11 10 11 10 10 18 31 49 63 63 69 82 74 64 71 76 79 81 80 85 89 88 85 81 79 75 69 65 57 53 56 60 62 62
14 9 6 10 13 10 4 3 8 13 13 13 14 15 15 16 17 18 18 18 17 11 9 11 12 13 13 11 10 11 10 11 11 9 8 8 8 9 10 10 11 11 10 11 12 14 17 16 12 11 11 10 10 8 7 9 9 9 11 11 16 40 63 63 67 80 76 66 69 75 81 86 86 85 88 85 80 78 77 71 67 63 57 54 58 63 65 63
18 12 7 7 11 11 5 3 7 12 12 13 15 14 15 16 16 18 17 20 20 13 9 11 11 12 12 9 9 11 10 10 10 9 8 9 9 9 10 11 12 12 10 10 12 14 15 12 9 10 9 7 8 7 6 7 9 10 11 8 14 40 57 57 64 74 73 68 69 78 88 94 92 89 89 85 78 77 76 73 70 66 62 57 55 60 64 63
19 16 10 6 10 11 5 2 7 10 10 13 16 14 13 15 14 15 17 22 23 16 11 10 10 10 9 9 10 10 10 9 8 8 8 8 8 9 11 10 10 12 11 9 10 11 10 7 8 9 9 8 7 7 7 6 8 10 9 8 11 25 40 51 62 69 74 73 68 72 82 89 93 94 93 87 84 82 78 77 75 70 67 58 52 59 62 59
20 19 14 8 8 9 6 4 7 8 10 14 16 15 14 14 14 14 20 28 27 18 12 10 9 8 7 8 9 8 10 10 7 8 8 7 8 9 10 11 10 11 9 8 11 11 8 7 8 9 9 9 7 7 7 6 9 9 8 9 8 13 32 54 62 66 73 72 64 59 63 82 95 93 92 89 88 88 84 83 79 75 71 59 53 59 59 55
23 21 16 12 9 9 8 6 5 6 7 11 14 16 14 14 14 12 24 41 34 17 12 10 8 7 7 7 7 8 12 11 8 8 9 8 8 8 11 13 12 12 10 10 15 15 10 8 10 11 10 9 8 8 9 8 9 10 7 9 8 11 32 56 61 58 55 50 54 55 56 83 102 94 90 90 90 92 89 88 85 80 76 67 58 57 55 53
25 22 18 15 10 9 9 7 4 5 6 9 13 16 13 13 14 14 35 53 32 11 9 9 7 7 7 7 7 8 10 10 10 10 9 9 9 9 11 13 12 14 11 10 15 14 10 10 10 11 11 9 9 9 11 9 9 11 9 9 8 6 20 43 49 43 33 25 38 52 47 66 95 95 88 89 90 95 92 89 89 83 78 73 65 57 53 50
25 24 20 16 12 9 10 7 4 6 10 8 10 15 12 12 14 19 45 53 24 8 10 7 7 7 6 7 7 7 8 9 11 10 9 9 8 8 10 11 10 12 10 9 12 11 8 9 9 10 10 9 9 10 9 8 10 11 8 9 9 8 10 17 22 23 20 14 23 43 45 60 93 99 91 92 93 94 91 88 86 80 77 74 69 59 50 47
21 26 22 17 14 10 9 8 7 10 12 8 8 11 9 13 22 31 48 45 21 9 9 6 7 6 6 7 7 7 7 8 9 9 9 8 8 8 9 9 8 11 14 12 11 11 7 6 8 8 8 9 9 11 9 7 10 7 8 12 11 17 23 22 26 22 20 23 24 30 35 54 85 95 92 94 91 86 85 84 82 76 74 73 70 62 51 47
17 23 23 19 15 11 9 8 12 17 15 12 10 7 9 21 33 38 38 28 18 12 7 7 8 6 7 7 7 7 7 8 7 7 9 9 9 9 10 12 12 16 22 19 14 13 10 9 10 7 7 9 8 10 10 9 10 7 15 20 15 29 45 47 44 27 19 33 32 26 31 45 71 86 87 85 79 77 77 79 82 76 72 70 69 64 52 47
13 18 23 20 15 12 9 7 10 16 19 18 12 7 18 30 34 34 27 20 20 15 7 7 7 6 8 7 7 8 7 8 7 8 9 10 12 12 13 17 17 17 22 22 17 15 14 10 10 8 7 8 9 13 14 13 14 14 23 33 33 43 51 49 45 32 30 37 32 37 53 64 78 83 79 74 69 72 74 73 75 73 69 65 64 62 54 51
12 14 20 19 15 11 9 8 5 9 18 19 12 14 28 36 36 34 25 20 22 14 6 7 7 6 8 7 7 7 7 8 7 8 8 8 12 13 12 15 16 14 17 18 16 16 18 13 10 10 9 8 11 17 16 14 16 18 25 37 41 43 44 43 42 42 46 40 29 43 65 80 87 79 77 81 77 76 75 68 66 67 69 66 62 61 55 54
11 11 17 17 14 9 11 11 4 5 12 13 16 24 30 34 37 33 24 20 19 12 7 7 6 6 7 6 7 7 8 8 7 7 8 8 10 12 12 12 11 12 15 18 17 15 20 20 14 12 11 10 12 15 14 14 16 16 20 29 31 33 41 44 43 45 48 39 36 52 70 85 91 82 81 85 79 77 74 69 66 63 67 69 65 64 59 55
8 9 17 17 11 11 19 17 6 4 7 11 26 37 34 35 35 28 23 19 15 11 7 7 6 6 6 7 7 7 8 8 7 7 9 8 11 13 12 10 9 11 15 19 18 15 18 20 15 11 11 11 12 12 11 15 19 18 21 27 26 28 41 48 46 45 43 44 57 72 78 81 85 82 78 74 72 73 70 70 72 68 69 70 68 70 68 62
5 9 16 16 11 15 23 17 5 4 8 16 30 35 32 33 27 21 20 16 12 12 10 10 9 7 8 9 8 7 7 8 7 7 9 9 11 12 11 10 10 10 14 18 17 15 17 17 12 8 10 12 11 11 9 12 21 26 27 29 25 24 38 49 49 47 48 52 64 81 88 86 85 84 75 70 74 75 71 73 75 74 74 72 70 73 74 72
6 12 15 14 10 15 26 17 2 5 12 18 32 38 33 25 18 17 17 14 13 13 11 13 12 9 10 11 10 8 7 9 8 8 12 12 13 12 10 10 9 8 13 15 14 13 13 14 12 9 11 12 9 10 11 10 16 25 25 26 27 27 35 45 50 59 64 56 58 77 93 92 88 87 80 76 78 75 73 77 77 78 77 73 74 75 74 75
13 16 15 14 9 15 29 20 3 7 14 20 37 48 38 22 15 14 13 11 12 11 11 14 12 10 10 10 12 10 8 11 10 10 14 14 13 12 10 10 10 8 8 9 13 15 13 14 15 12 11 11 9 11 15 13 14 19 20 22 29 33 41 48 50 58 63 58 62 76 86 91 92 93 90 83 81 79 77 80 83 84 82 78 78 77 75 76
20 19 16 18 15 17 27 19 4 9 17 24 37 38 26 18 15 11 10 10 10 10 13 13 10 11 10 9 11 10 9 10 9 12 15 13 13 13 10 10 9 7 8 9 13 16 14 16 17 14 11 11 15 18 19 18 16 17 20 24 30 34 43 49 47 55 63 66 72 71 75 92 95 93 94 86 82 85 85 86 88 86 85 83 80 76 74 76
24 25 21 20 22 23 23 14 9 15 22 29 35 26 16 14 11 9 9 9 9 10 13 12 10 11 11 9 10 9 10 10 8 11 13 12 14 12 8 10 9 8 10 11 12 17 22 21 18 17 14 12 16 18 19 19 19 24 28 29 32 34 39 43 43 54 63 67 71 65 70 94 96 90 93 86 83 90 90 90 91 86 83 81 78 77 75 76
27 38 31 22 25 25 20 14 14 20 25 27 25 18 12 11 10 10 9 8 9 10 10 10 10 11 10 10 11 9 9 11 9 10 11 10 13 12 8 9 8 7 11 14 15 18 22 22 21 22 19 15 16 13 14 16 18 28 32 31 36 40 45 51 52 54 55 58 61 53 60 87 92 86 88 86 87 90 86 86 88 86 83 80 79 80 81 83
29 43 33 22 24 20 15 18 18 17 19 19 16 12 11 11 11 10 8 8 10 10 10 10 10 10 9 10 10 8 10 12 11 11 11 10 12 13 9 7 7 8 13 17 15 14 22 28 28 27 22 16 15 13 14 15 16 24 28 31 38 42 50 60 63 58 50 49 57 53 56 78 86 84 87 85 84 82 77 80 85 86 86 83 83 84 84 89
27 32 25 21 23 17 15 24 25 19 17 14 11 10 9 10 10 9 9 9 10 10 11 10 9 9 9 9 8 7 9 11 11 12 12 11 11 10 8 7 7 10 14 18 16 16 24 29 30 38 44 33 21 18 16 15 19 23 26 30 32 33 43 55 62 63 51 47 62 63 60 75 83 83 83 76 74 76 74 79 86 87 90 88 87 90 90 90
28 29 23 21 23 20 19 26 30 30 27 19 12 11 10 9 9 9 10 10 10 11 11 10 9 8 8 9 7 8 10 12 13 12 11 13 11 8 8 7 7 10 14 17 16 13 19 32 41 52 57 43 28 24 20 18 21 23 24 26 26 28 36 40 47 57 51 47 56 57 61 80 85 83 85 81 78 80 77 81 90 91 92 93 92 94 96 93
37 37 29 27 28 26 23 23 25 28 29 24 20 18 15 12 11 10 10 10 9 10 10 10 8 7 8 8 8 8 9 11 13 13 12 11 10 8 8 7 8 12 13 12 13 14 22 37 52 58 52 40 33 30 26 24 23 20 19 20 22 26 31 36 45 53 52 52 55 56 67 81 81 80 88 88 84 85 84 86 92 92 92 95 95 96 99 98
52 52 44 42 38 31 28 25 24 26 27 28 28 23 18 16 13 11 11 12 11 10 9 10 8 8 9 8 9 9 8 9 12 15 16 12 10 10 8 8 9 11 14 11 8 19 29 31 46 64 59 44 41 39 33 27 21 17 18 18 22 28 32 42 51 53 56 59 56 60 72 78 78 81 82 83 87 93 94 92 92 93 93 95 95 96 99 101
63 62 55 58 53 45 43 38 34 36 33 32 33 26 18 17 14 11 12 12 12 10 9 10 9 9 10 9 10 11 9 10 11 14 15 13 13 10 7 12 13 10 17 14 6 25 38 25 29 49 45 30 30 32 25 19 16 16 16 16 22 29 34 41 45 49 61 62 52 59 75 78 80 82 82 87 95 96 94 94 94 95 96 96 94 92 95 99
64 62 57 63 64 60 60 54 46 44 37 35 36 27 19 18 15 12 12 10 10 10 11 13 11 11 12 10 12 16 14 13 13 13 15 14 15 14 10 14 16 13 16 12 10 29 40 28 23 26 23 20 20 19 17 16 16 17 15 16 21 26 30 34 39 51 65 65 56 64 77 80 80 84 88 93 94 91 92 95 94 94 95 96 95 92 93 96
66 71 66 62 62 60 59 55 48 45 40 39 43 34 23 21 18 12 11 10 12 11 10 14 14 11 12 13 16 22 19 16 16 17 19 16 16 20 19 16 16 15 14 13 15 22 29 37 36 20 16 25 20 13 17 18 16 17 18 21 22 22 26 30 37 51 60 62 69 78 83 86 87 89 93 90 84 86 92 94 94 93 94 95 95 94 93 95
76 83 77 66 64 60 54 50 46 46 44 40 43 38 27 25 25 19 14 13 16 17 12 15 18 14 13 13 16 19 19 20 22 21 19 18 18 23 23 20 19 15 13 16 18 17 21 37 43 26 21 33 29 19 20 18 19 26 30 30 26 24 28 31 37 49 54 61 80 90 92 94 90 87 89 85 81 88 94 96 96 94 94 95 93 94 92 89
71 76 76 75 76 64 53 51 47 49 51 42 38 36 29 28 29 25 23 18 17 19 18 20 24 22 18 15 14 16 17 18 19 17 15 14 15 19 18 17 17 13 14 19 18 19 26 35 38 32 29 36 36 24 19 21 28 35 36 33 30 31 36 38 43 52 54 62 80 89 92 96 91 85 86 84 85 94 97 98 98 94 94 95 93 93 92 86
54 54 58 73 83 69 57 58 54 53 55 45 36 35 32 30 28 27 31 25 16 17 21 21 23 26 26 22 18 18 18 16 14 13 12 10 9 12 11 12 13 13 18 23 19 24 35 32 30 36 38 38 34 25 26 31 35 42 45 38 33 40 48 50 51 52 52 62 77 82 84 90 91 88 90 90 92 98 100 100 98 93 91 92 93 95 93 89
Wind_Speed
10 7 5 4 5 6 7 8 9 11 12 13 14 14 14 14 14 14 13 13 13 13 13 12 11 9 7 5 3 2 2 4 3 3 5 5 5 5 5 5 4 4 5 7 11 12 12 11 9 8 7 7 11 14 12 8 9 6 2 2 1 1 0 3 3 3 3 1 3 1 2 2 1 9 11 5 5 21 24 20 22 14 18 25 22 28 30 29
10 8 5 5 5 6 7 8 9 10 12 13 14 15 15 15 15 15 14 13 13 12 11 12 11 9 7 6 4 2 2 1 1 1 3 1 1 2 2 3 3 5 6 8 10 11 11 9 6 5 9 10 11 15 11 7 9 4 2 3 1 3 2 4 5 5 4 3 4 3 2 4 7 13 9 5 3 8 14 16 20 20 23 25 26 31 31 32
10 8 6 5 5 6 7 8 9 10 12 13 14 15 15 15 15 15 16 13 13 12 11 12 12 10 8 6 5 4 4 2 0 2 2 1 2 3 2 4 4 5 6 7 10 10 7 7 7 8 12 14 14 16 10 6 8 4 4 2 4 5 4 6 8 8 6 5 9 6 8 13 13 11 5 3 4 7 13 17 20 24 30 31 31 33 32 33
10 8 6 5 5 6 7 8 9 10 11 12 14 15 15 15 15 15 15 14 13 11 11 12 12 12 9 7 6 5 4 2 1 1 3 4 4 4 2 2 4 6 7 8 10 9 6 6 9 10 11 14 16 15 10 9 10 5 6 2 5 8 6 10 13 10 7 6 10 9 10 13 9 5 6 3 3 5 9 21 27 29 34 35 33 33 33 32
11 9 7 5 5 6 7 7 8 9 11 12 13 14 15 15 14 14 14 13 13 11 11 11 12 12 10 7 5 5 6 3 1 1 6 7 5 4 2 4 6 7 8 10 10 9 7 7 8 9 6 8 11 9 8 15 13 5 5 5 10 11 4 11 16 10 8 7 10 7 4 5 4 3 6 7 5 2 9 22 30 35 36 35 34 33 32 32
11 9 7 6 5 6 6 7 7 9 10 11 12 14 15 14 14 14 13 13 12 11 10 10 11 10 9 7 6 8 5 1 3 3 7 8 5 3 3 6 8 8 10 11 10 8 7 6 7 9 4 2 9 8 8 18 15 3 2 7 14 13 6 13 16 11 11 10 9 6 2 2 3 2 5 7 6 7 19 24 26 34 35 34 33 32 31 30
11 9 8 6 5 5 6 6 7 8 9 10 11 13 14 14 14 13 13 12 11 10 9 9 9 8 9 9 9 10 6 5 4 3 6 8 4 3 5 8 9 10 12 10 9 6 5 5 9 10 7 3 8 10 12 19 16 4 3 8 13 11 11 16 15 12 13 12 10 7 3 1 2 2 4 2 7 9 17 18 20 31 33 32 31 30 30 27
12 10 8 7 6 5 6 6 7 7 8 9 10 11 13 13 13 13 12 12 11 10 9 9 9 10 11 11 13 11 7 7 3 2 7 6 3 3 5 8 9 11 12 9 6 2 6 8 10 9 5 5 5 7 12 17 10 6 6 9 12 10 14 17 14 13 12 11 11 8 4 1 2 1 4 3 6 7 10 13 20 31 32 31 30 29 27 26
13 11 9 7 6 6 6 6 7 7 7 8 9 11 12 13 12 12 12 11 11 9 9 10 9 11 11 12 14 8 6 6 0 2 8 4 1 3 6 7 9 10 9 7 3 3 6 8 9 9 7 8 9 8 10 16 6 9 11 11 11 11 15 16 13 14 11 11 11 8 5 2 2 2 3 7 4 7 10 12 21 30 31 30 29 29 26 27
14 12 10 8 7 7 7 7 7 6 7 8 9 10 11 12 12 11 11 11 11 10 10 9 10 12 11 13 10 4 8 7 1 3 8 4 1 6 7 5 6 6 6 5 3 4 8 10 13 14 13 10 8 10 1 9 8 13 15 10 9 10 13 12 12 13 10 10 10 7 4 3 4 1 3 6 4 10 10 9 20 28 29 29 28 29 26 27
15 14 12 9 8 7 7 8 7 7 7 7 9 10 11 11 11 11 10 11 11 10 10 9 10 11 12 14 9 5 10 7 2 4 6 3 3 7 6 4 2 1 3 4 5 7 10 11 13 13 8 6 9 13 7 10 14 18 19 10 4 4 8 8 9 12 9 6 8 7 3 2 3 2 6 4 3 12 11 10 18 22 27 28 27 29 27 26
16 15 13 11 9 8 8 8 8 7 7 8 9 9 10 11 10 11 11 10 11 11 11 10 10 11 13 13 8 7 10 6 3 3 4 2 3 6 5 3 1 3 5 7 9 9 9 8 9 10 6 6 7 8 6 16 18 19 18 7 2 3 1 4 4 8 7 3 8 7 3 1 2 5 10 4 2 10 12 15 16 16 24 26 26 29 27 25
17 16 15 13 10 9 8 8 8 7 7 8 8 9 9 10 11 11 11 11 11 11 11 11 11 13 14 11 6 6 6 4 4 3 4 6 4 1 2 1 1 2 5 9 11 8 7 5 8 11 8 7 4 5 5 10 19 14 7 3 3 4 3 4 1 5 5 3 9 8 1 4 5 9 11 4 4 10 11 16 14 11 19 20 25 30 26 24
18 17 16 14 12 10 8 8 8 8 7 7 7 8 8 10 11 11 13 13 11 9 9 10 11 12 12 11 6 5 4 3 5 5 5 8 10 10 6 3 4 3 3 8 9 6 5 4 8 11 7 5 6 8 8 6 14 8 1 1 4 1 3 2 2 6 4 3 10 7 0 4 4 9 12 6 5 9 8 13 12 10 15 16 23 29 23 22
19 19 17 16 13 11 9 8 8 8 7 6 6 7 9 11 12 12 13 13 11 10 9 9 10 9 12 12 4 2 3 7 6 3 2 5 8 12 11 7 8 6 3 5 5 4 5 4 7 8 5 7 8 6 5 2 5 4 4 0 1 3 3 2 2 8 4 3 8 6 1 4 4 7 12 10 7 9 8 12 14 12 11 12 21 27 22 22
20 20 18 17 14 12 10 8 8 8 7 6 6 7 10 12 12 12 12 12 11 10 10 10 9 7 9 8 2 3 6 8 5 2 2 2 4 8 8 7 9 8 5 4 3 3 4 3 6 7 7 7 3 2 3 3 1 2 4 3 4 4 2 3 4 11 7 5 4 3 0 3 5 5 10 11 10 11 9 11 16 13 8 10 18 21 21 24
21 20 19 18 16 13 11 9 8 7 7 6 6 7 10 12 12 13 11 10 11 12 13 12 10 9 7 5 3 5 8 5 2 3 3 2 4 4 5 7 9 9 8 5 4 5 5 5 5 5 5 3 1 4 4 4 4 3 2 3 5 4 3 2 3 10 10 6 3 3 2 4 6 3 9 11 10 12 10 11 15 13 9 9 14 17 20 26
20 20 20 19 16 14 11 9 8 7 6 4 8 10 10 10 11 11 10 10 13 14 12 9 7 5 4 6 3 3 5 4 3 4 3 4 6 5 5 6 7 9 9 7 7 8 8 6 3 1 3 2 1 4 3 4 4 4 3 4 4 3 5 6 3 8 11 5 5 5 4 7 7 3 7 9 11 13 11 12 13 11 11 10 11 14 15 23
20 20 19 19 17 14 11 9 8 7 3 3 9 12 10 11 10 6 8 13 14 11 7 5 5 3 6 10 5 6 3 3 4 5 4 4 3 4 6 5 8 9 6 4 5 8 8 2 1 1 3 4 5 5 6 8 6 6 6 4 7 5 4 5 1 7 13 6 4 7 6 6 5 5 6 9 11 13 12 12 11 11 15 15 11 11 8 16
21 20 19 19 17 14 11 9 8 5 2 3 10 12 11 13 8 6 14 21 20 16 14 14 14 16 18 14 7 9 4 3 4 7 8 6 5 6 7 7 9 8 4 4 3 6 7 2 2 4 6 7 8 8 10 9 7 7 2 4 8 7 4 3 2 6 12 7 5 8 6 5 6 6 6 10 11 11 12 12 12 12 16 16 12 11 6 9
22 21 19 19 17 14 10 8 8 4 3 6 11 11 10 10 6 6 18 25 23 20 21 21 19 20 20 13 9 12 7 3 4 7 8 10 9 6 6 6 4 3 5 5 3 2 5 3 6 9 9 10 9 8 9 10 7 3 3 5 5 6 4 2 4 7 9 5 3 6 5 6 6 5 6 10 8 8 12 13 13 12 15 15 11 14 8 4
22 21 20 19 17 14 10 7 6 3 2 4 8 9 9 8 6 9 15 18 21 20 20 20 18 18 18 13 8 9 8 5 6 9 9 11 11 6 4 2 2 3 4 3 2 1 2 4 10 12 10 9 11 8 6 6 2 1 2 3 3 4 2 1 3 7 7 2 2 5 6 5 4 3 5 9 8 8 14 16 15 13 16 14 11 19 12 4
23 22 20 19 17 15 9 5 5 4 4 4 8 15 14 8 5 11 13 11 17 21 20 18 16 15 15 12 7 9 10 7 8 11 10 11 12 10 7 2 2 5 2 3 4 3 3 6 12 12 8 5 5 4 1 2 2 1 1 2 2 4 3 1 2 7 7 2 2 6 4 2 2 1 2 7 8 8 13 16 15 14 17 17 15 21 16 8
24 22 20 19 17 15 10 5 5 7 8 4 9 16 15 9 7 12 14 6 8 15 16 15 15 13 15 12 6 9 11 8 10 13 13 11 10 8 7 6 5 5 6 7 9 8 6 8 11 8 4 3 3 4 4 4 3 3 1 2 3 4 5 3 4 7 4 2 2 6 3 4 1 2 2 4 5 6 12 14 14 14 15 18 21 22 18 12
24 23 21 19 18 15 10 4 6 9 10 4 7 11 13 12 12 14 12 4 4 8 9 9 9 11 15 12 6 8 6 7 12 16 15 10 7 4 4 6 5 4 7 7 9 8 7 9 8 4 2 3 5 3 2 3 1 4 1 4 4 7 8 3 9 7 3 3 3 5 2 4 2 4 4 3 2 4 8 10 13 15 14 19 25 23 20 15
23 24 22 20 18 16 10 3 5 9 10 4 6 9 10 10 11 12 7 2 3 5 3 2 5 6 9 8 7 6 3 3 10 14 14 10 7 4 2 3 2 3 6 3 5 3 4 4 1 4 4 3 5 3 4 3 3 2 2 4 3 4 3 8 11 6 3 3 5 6 5 2 2 3 5 3 4 5 5 6 11 15 16 20 25 23 23 22
22 23 23 20 19 17 12 6 7 9 9 8 8 9 10 9 9 9 4 3 3 4 1 3 5 5 6 7 9 5 1 4 8 9 12 9 7 4 2 4 2 4 5 2 2 2 1 1 4 4 4 4 4 3 5 3 7 2 6 3 4 5 5 10 10 5 4 1 2 6 5 2 1 4 4 4 5 5 5 5 8 13 17 20 23 23 24 27
21 22 23 20 18 17 14 10 8 7 7 10 10 9 10 10 9 5 3 2 2 2 1 4 5 5 7 9 12 9 6 9 6 7 11 8 6 4 2 6 3 6 7 2 1 5 2 2 3 5 5 3 2 4 6 2 5 5 7 3 2 3 7 10 8 5 3 2 0 4 4 3 3 4 1 4 3 5 6 6 7 10 16 18 20 22 22 24
21 21 22 20 18 16 14 12 9 6 4 7 10 9 9 9 7 3 4 2 2 2 3 5 4 6 9 9 11 12 9 11 7 7 12 10 9 7 3 7 4 5 7 2 4 6 3 4 6 6 4 2 5 6 5 1 2 5 2 1 3 1 4 6 7 5 1 3 4 7 5 3 2 2 1 2 1 5 6 5 6 11 16 17 18 21 21 22
20 20 21 21 18 15 14 11 7 6 4 5 9 10 10 7 3 4 3 0 3 3 4 5 4 6 9 5 6 7 6 10 11 9 10 10 11 10 7 7 3 2 5 3 1 6 6 5 3 3 4 5 5 4 4 3 4 3 5 4 5 6 3 3 3 3 4 2 6 6 7 5 0 2 2 3 3 5 5 3 5 9 15 18 19 20 21 22
20 19 20 21 18 15 14 9 4 6 4 5 7 8 7 5 3 4 1 3 3 2 2 3 3 4 7 4 3 3 2 5 9 6 6 6 5 6 4 3 2 2 4 5 4 6 4 2 2 2 4 4 2 2 3 3 1 3 5 4 4 5 4 5 5 4 3 4 6 0 6 6 1 3 4 5 5 4 5 4 5 8 13 18 19 20 22 22
21 19 18 20 18 15 13 8 5 6 5 5 5 4 1 3 2 2 3 4 3 3 3 3 4 3 5 6 4 5 3 2 6 4 4 4 3 3 3 3 2 3 4 3 3 6 3 3 4 2 3 2 4 2 4 6 6 5 4 5 4 3 4 4 4 2 1 5 4 2 4 4 0 4 2 4 3 0 3 1 2 7 13 17 19 19 21 22
22 19 18 18 17 14 11 7 6 7 6 5 3 2 4 4 2 4 3 3 2 3 2 3 6 5 4 4 3 5 4 3 7 6 4 5 4 4 3 4 4 4 0 2 1 4 5 2 2 2 2 2 5 4 1 2 4 4 3 4 4 2 3 2 2 2 2 4 3 1 3 3 3 3 6 5 6 8 10 9 6 3 5 10 17 20 22 22
22 19 19 18 15 10 8 6 6 8 7 5 1 4 4 2 4 4 2 4 4 4 4 3 5 4 2 2 3 4 3 3 6 5 2 3 2 3 1 2 3 4 3 1 2 2 3 3 2 1 2 3 4 4 6 4 3 2 3 5 4 3 4 2 2 1 2 4 4 3 3 1 2 4 7 7 9 14 17 14 11 10 9 7 9 16 21 24
23 19 19 19 13 7 6 6 7 8 8 6 3 5 3 4 3 2 2 4 4 4 5 2 3 2 2 3 4 2 3 2 3 2 1 1 2 1 3 3 3 4 4 2 1 1 1 3 5 3 4 6 4 4 6 6 3 1 2 5 2 3 5 2 2 3 2 1 3 4 2 1 1 2 5 4 5 10 13 14 14 13 12 11 10 9 14 22
23 19 17 18 12 6 5 5 7 9 10 8 4 1 4 4 3 3 2 3 4 4 7 7 2 1 3 3 4 4 2 1 3 1 2 1 2 1 2 2 3 3 5 3 0 1 2 3 6 3 2 3 3 3 4 4 2 1 3 3 2 3 6 3 1 1 3 3 2 2 1 3 2 1 3 4 5 5 7 9 11 12 12 12 10 10 9 13
22 20 17 15 11 8 8 5 7 11 11 8 4 4 5 3 4 3 3 7 8 6 4 4 2 1 2 2 4 5 2 2 2 3 1 1 1 1 1 1 0 3 4 5 1 1 2 3 5 4 3 6 3 8 6 5 4 3 3 2 2 2 5 3 2 3 4 3 1 1 2 2 2 0 3 4 5 6 5 5 8 9 11 12 12 11 10 9
23 23 17 8 6 12 12 6 9 14 10 6 1 4 3 3 4 5 9 10 9 7 3 2 3 2 1 2 5 4 2 1 2 2 0 1 0 1 1 2 4 7 4 6 2 1 3 1 6 4 5 8 8 9 5 8 8 6 5 4 3 3 2 2 2 1 2 2 1 1 1 1 2 2 3 4 4 6 6 5 5 7 10 13 14 14 12 11
22 20 11 3 4 10 11 10 12 14 7 3 2 4 3 4 8 13 15 11 6 5 4 3 3 1 3 2 4 3 2 2 3 2 2 1 1 2 0 2 2 8 10 10 4 1 3 2 4 5 6 6 6 5 1 4 7 5 4 3 3 3 3 1 1 2 3 2 1 1 2 3 3 4 3 5 6 6 6 5 5 7 9 11 13 15 15 13
18 13 7 1 4 7 11 13 12 9 4 2 4 3 3 5 10 16 19 14 6 4 5 3 1 1 1 1 2 2 1 3 3 3 2 2 2 1 2 2 3 4 12 14 6 1 3 4 2 5 6 5 3 1 3 4 1 3 4 3 2 1 2 2 1 1 4 3 2 2 1 4 4 3 5 7 7 4 4 5 6 10 11 12 13 14 14 13
13 8 6 2 8 10 12 12 7 4 2 2 3 3 4 6 9 16 23 20 12 9 9 5 1 2 3 1 2 2 1 2 1 2 1 1 3 1 3 1 4 5 6 8 5 2 2 2 1 3 4 3 3 4 3 4 6 5 4 3 3 2 3 3 2 2 2 3 3 3 2 5 4 3 5 6 5 5 7 7 7 11 13 14 14 14 14 15
11 4 2 8 14 15 14 8 2 3 3 3 4 5 6 7 8 12 19 21 14 10 9 5 1 2 2 2 2 1 1 1 1 2 1 2 4 3 3 4 11 12 7 3 1 1 2 3 3 1 2 3 7 7 4 3 6 6 3 3 4 3 5 5 1 2 1 1 1 2 1 4 5 3 5 6 6 8 8 7 8 11 15 15 15 16 14 15
13 9 5 7 10 14 11 1 3 2 2 5 8 9 11 9 7 10 13 14 11 6 4 2 2 2 1 2 1 3 2 1 3 3 1 1 3 4 5 9 14 12 6 1 1 1 2 3 3 2 4 5 7 7 5 5 5 5 2 2 4 3 4 5 4 3 1 1 0 2 0 4 4 2 5 8 9 8 5 7 9 11 16 16 16 17 15 13
18 15 6 5 7 12 8 1 1 3 4 6 6 9 12 11 9 11 10 9 9 4 2 3 2 3 2 1 2 0 1 0 3 3 2 1 1 3 6 12 12 6 2 2 2 1 1 1 3 3 4 5 7 7 6 6 4 2 3 2 4 5 5 4 2 3 2 2 3 4 2 5 4 2 4 6 7 6 3 6 9 11 14 16 17 18 15 12
14 11 6 6 4 8 11 7 5 3 3 5 6 7 8 9 11 13 12 12 14 7 3 4 3 3 3 1 0 1 3 2 1 2 2 1 1 1 5 13 12 6 6 9 8 5 3 2 4 5 3 1 1 2 2 3 3 2 3 1 5 7 7 4 2 4 1 3 3 5 4 5 4 3 4 4 4 3 3 8 10 10 11 14 15 16 14 11
7 3 6 12 11 4 7 10 6 3 3 4 6 5 5 5 8 14 13 12 15 11 5 3 3 1 1 1 0 2 2 2 2 2 2 3 2 2 10 16 14 11 13 14 11 5 3 2 3 6 6 5 5 6 5 2 2 5 5 1 5 6 6 6 4 2 3 2 1 2 5 3 4 5 4 4 3 3 4 6 9 10 11 12 13 13 12 10
3 1 4 7 8 8 10 12 11 8 6 6 4 5 7 6 5 9 9 9 13 12 6 3 4 2 2 3 1 2 4 1 2 2 2 4 2 3 9 14 13 14 15 12 10 6 4 2 1 5 6 7 7 7 6 3 3 4 5 3 5 6 6 6 3 4 4 5 1 5 4 6 6 6 4 3 3 3 3 4 6 8 9 10 11 11 11 10
2 4 6 6 4 3 5 9 13 12 10 9 5 5 9 9 6 5 7 11 13 9 4 2 4 4 5 6 3 1 3 2 0 2 1 1 2 3 4 3 6 13 12 8 7 6 5 1 4 4 4 6 5 6 6 3 3 3 2 3 4 6 7 6 4 5 6 5 4 6 5 6 6 5 4 5 4 2 1 2 3 5 6 7 10 11 11 11
4 5 7 7 5 5 7 12 15 12 8 7 5 5 6 7 7 6 6 7 9 5 5 4 5 5 6 5 5 2 2 1 2 2 1 1 2 4 3 1 3 7 7 5 3 3 5 2 5 3 1 4 4 5 4 4 4 5 2 2 3 5 8 8 6 6 7 6 5 6 6 5 4 4 5 4 4 3 2 2 2 3 5 5 8 11 11 11
5 4 8 10 7 7 11 13 12 8 7 6 4 4 5 4 6 7 6 5 5 4 2 1 3 5 6 3 4 3 5 7 6 4 5 3 1 1 4 2 3 3 3 3 1 1 3 2 3 2 2 5 6 3 4 5 3 3 4 4 6 6 5 5 4 5 7 6 5 7 6 3 4 3 4 4 4 3 3 3 3 3 3 4 7 9 10 10
4 3 7 8 5 5 7 9 8 5 4 4 3 5 6 6 8 11 10 7 4 2 0 1 5 6 6 3 4 0 7 5 6 6 8 8 5 5 5 5 7 5 3 3 2 2 3 1 1 4 4 4 5 5 5 3 5 5 4 3 6 7 4 3 2 3 5 7 6 5 3 4 4 4 4 3 3 4 4 2 3 4 3 5 6 8 9 9
5 5 4 3 3 4 4 6 7 4 3 4 7 9 9 9 11 11 8 8 9 10 4 4 6 6 6 5 3 6 14 10 6 10 8 10 13 11 9 10 13 10 4 3 2 3 4 3 2 4 3 4 5 3 3 3 6 4 4 3 5 7 7 5 3 3 3 6 6 4 3 4 4 5 4 3 2 5 4 2 3 3 3 4 5 6 8 8
Wind_Direction
13 17 24 35 39 39 31 28 25 21 21 18 15 11 6 3 359 355 351 349 348 348 350 352 351 348 344 343 340 309 271 267 266 231 208 197 182 192 182 177 190 198 205 183 180 186 182 186 179 173 207 221 231 220 199 179 155 132 78 72 63 295 213 176 183 175 153 168 218 199 110 101 247 274 285 308 145 157 163 162 160 161 150 156 163 162 161 160
14 20 26 36 40 34 27 25 21 19 19 17 15 11 7 5 3 1 358 353 351 354 359 1 0 1 6 12 14 23 46 138 251 173 175 196 226 266 253 219 215 197 196 190 189 190 190 201 197 212 236 233 222 203 196 181 164 147 97 104 195 216 193 171 166 171 165 168 174 145 179 202 241 271 299 1 7 150 152 148 145 137 137 145 152 158 159 160
15 18 21 31 33 26 22 19 17 17 16 16 14 10 7 4 3 5 4 0 359 4 9 8 9 13 21 24 39 67 71 84 154 122 101 356 304 304 268 231 219 201 201 191 192 195 203 220 231 257 248 232 215 197 193 184 179 171 129 132 229 196 164 178 179 184 190 168 156 156 203 218 248 285 337 350 6 102 132 137 139 135 137 142 149 158 160 161
13 13 15 18 20 18 17 14 15 15 13 13 10 6 3 1 3 5 6 6 6 12 16 15 18 23 27 31 56 69 33 11 189 112 19 343 323 312 270 220 211 208 200 184 191 198 217 249 256 268 246 217 205 193 186 188 187 165 158 172 206 181 157 185 189 193 202 186 175 174 195 215 256 325 24 27 72 76 122 142 146 143 144 148 151 157 161 165
10 8 6 3 7 11 11 12 11 11 10 9 6 2 358 357 359 2 6 8 9 14 18 21 22 25 31 35 46 22 7 13 246 4 357 347 332 305 260 218 205 201 188 182 189 193 222 250 275 291 253 191 176 182 203 197 180 142 190 174 166 180 158 176 185 192 193 187 187 174 187 233 311 11 43 63 101 72 124 140 147 148 150 153 155 158 159 164
7 4 358 352 353 359 4 6 7 8 6 2 1 357 354 351 353 357 3 5 8 14 19 22 17 23 28 19 5 348 349 328 279 315 340 340 320 269 219 207 196 189 183 183 192 200 235 252 304 306 282 177 160 177 213 195 183 139 187 150 163 184 147 160 178 185 184 178 177 166 190 273 7 49 53 76 102 111 137 144 148 151 154 156 158 161 160 162
5 0 353 342 336 343 352 357 360 2 360 357 354 352 349 345 347 351 356 1 5 11 17 14 8 8 1 348 342 335 310 295 287 265 312 323 300 242 202 198 188 183 178 180 194 207 261 291 308 290 279 273 184 201 214 190 188 188 127 150 171 175 146 158 168 172 183 181 175 169 174 302 356 64 17 88 116 109 146 156 157 156 156 158 160 164 166 169
4 359 352 338 324 326 335 345 350 354 354 351 347 346 344 340 340 343 349 356 357 2 4 1 359 352 346 338 338 330 306 321 311 252 320 321 283 224 186 187 183 179 172 177 198 239 310 306 295 276 265 256 256 270 206 173 183 192 151 160 167 150 145 156 160 164 174 171 168 166 156 333 273 290 338 216 135 109 154 164 164 159 158 161 164 167 171 177
4 360 353 339 319 312 318 328 337 344 346 344 343 342 339 336 335 336 342 349 351 352 349 347 348 344 340 335 337 331 323 341 29 337 345 340 259 165 163 175 176 178 177 188 224 290 295 301 297 293 300 283 313 332 163 154 184 188 159 158 158 140 142 149 153 162 166 162 161 155 145 127 196 270 285 223 176 127 148 159 165 161 161 165 168 173 175 182
4 0 355 343 321 307 305 310 321 332 337 337 338 337 335 332 331 331 334 342 344 341 339 339 339 339 336 336 338 340 337 333 204 337 347 351 149 138 132 143 161 174 184 197 242 290 294 304 312 313 309 302 326 344 83 157 178 160 142 135 142 142 146 153 153 155 157 161 166 157 149 146 152 170 245 232 193 156 161 161 163 164 167 169 173 177 179 186
4 1 356 347 331 311 299 301 310 319 327 328 331 334 333 329 328 327 328 334 336 333 332 327 328 330 329 332 321 306 335 330 280 315 331 354 144 144 121 117 135 232 230 235 272 306 311 308 321 327 312 320 331 334 11 136 149 139 132 108 89 134 143 159 151 150 154 162 176 153 116 120 126 187 217 220 129 163 178 169 164 171 175 174 177 181 182 186
4 2 358 352 339 320 305 299 302 310 319 321 326 332 330 324 321 322 322 325 327 327 325 319 322 326 325 326 308 308 338 340 327 310 310 350 132 128 110 125 145 287 277 278 285 301 307 301 328 334 317 336 325 327 57 133 143 136 135 110 15 5 109 185 140 153 166 155 169 144 66 273 178 223 218 211 141 172 167 162 170 179 183 181 178 183 183 181
5 2 359 355 344 330 312 300 302 307 310 316 323 328 325 319 314 315 317 317 321 324 325 321 320 327 324 316 305 313 330 327 312 275 285 295 266 273 76 138 189 274 283 272 276 293 295 293 324 324 318 329 297 294 346 142 143 133 132 108 105 22 319 224 134 158 163 132 161 147 29 254 228 229 214 180 170 181 156 160 177 177 181 185 177 181 182 178
5 2 359 357 349 337 319 305 304 304 309 317 320 322 315 308 304 307 313 311 312 315 321 321 317 324 319 305 294 298 297 272 271 259 272 282 270 270 275 263 227 217 263 258 265 284 284 295 313 313 310 298 282 300 327 134 139 129 70 33 115 106 264 230 132 155 132 150 170 144 220 248 257 238 213 191 175 182 153 154 175 166 172 186 176 177 180 180
6 2 359 358 353 342 326 311 304 305 311 311 307 314 308 302 303 307 310 307 306 307 307 310 311 315 313 306 284 270 253 206 216 223 223 267 270 267 266 257 236 228 249 261 267 253 255 294 303 303 297 285 293 310 335 114 138 136 141 262 142 185 253 326 197 186 146 152 172 138 218 253 270 242 208 197 179 176 157 149 168 165 163 180 175 174 177 179
5 3 360 357 355 346 332 314 306 308 307 303 305 319 314 306 305 306 305 300 302 304 303 305 304 308 310 305 251 221 226 200 203 203 194 261 271 269 274 259 237 231 244 263 283 246 221 270 290 288 282 286 307 46 16 4 3 168 158 177 193 192 259 338 236 209 171 116 168 165 213 270 274 237 190 186 175 169 164 154 169 174 165 167 166 171 172 169
3 2 360 358 356 348 335 317 310 306 303 311 328 341 327 310 303 298 294 297 304 303 302 296 287 297 286 254 244 236 222 198 192 200 192 246 245 267 289 255 235 237 244 236 253 256 229 239 264 273 274 284 87 95 49 337 292 263 177 144 193 192 167 183 236 204 169 126 182 200 228 259 286 250 172 180 175 167 166 164 176 185 185 177 159 160 166 165
359 359 359 357 355 349 337 319 311 308 310 342 352 353 349 337 323 299 284 299 311 310 306 285 265 299 277 245 234 182 201 195 192 194 189 246 248 259 261 243 248 250 237 221 228 232 231 239 217 269 318 313 243 114 119 227 225 237 210 148 175 178 180 205 214 173 162 153 177 174 227 255 282 255 171 179 176 167 166 170 183 183 182 192 163 151 163 168
356 356 356 356 355 351 339 321 312 312 317 18 357 358 13 9 1 342 321 319 312 310 307 267 233 240 273 272 225 155 198 199 204 233 233 241 233 231 232 243 268 252 208 190 229 214 207 232 154 197 281 256 234 180 197 223 214 242 250 163 156 166 213 216 155 163 158 149 182 176 209 245 242 216 184 180 177 168 164 169 182 177 177 192 179 151 155 174
353 353 353 353 354 350 340 321 312 313 302 356 3 14 20 4 5 14 342 323 307 304 300 283 268 264 273 276 205 168 195 179 207 240 229 225 226 237 246 254 269 260 205 171 217 204 181 179 234 220 228 233 230 210 217 237 246 253 244 124 159 175 217 204 139 176 155 144 211 189 199 236 211 207 189 177 175 166 161 163 175 177 179 192 188 155 126 172
350 350 350 350 352 349 343 318 305 312 304 336 2 13 10 359 356 348 337 323 311 309 302 292 282 276 277 271 200 178 195 209 256 252 227 226 233 249 255 243 247 256 236 217 228 193 151 178 238 227 227 233 239 235 231 240 251 264 91 102 158 181 223 220 152 173 156 143 217 178 187 238 220 203 182 171 173 178 171 166 172 177 182 194 190 159 138 166
348 348 348 347 349 349 341 311 295 304 293 318 358 5 3 9 0 338 334 317 306 307 302 292 284 279 272 256 205 184 201 215 250 250 223 212 220 234 239 211 205 235 231 194 218 276 157 228 244 233 228 232 243 242 221 223 225 40 51 85 163 196 209 34 116 162 162 154 227 174 184 243 246 191 181 175 178 192 185 177 177 178 180 189 178 161 165 198
347 345 346 345 346 348 340 303 274 262 253 278 356 5 1 355 340 333 328 300 294 302 296 282 276 273 252 229 193 178 196 203 224 231 207 192 208 224 230 217 253 264 255 157 180 199 196 238 246 240 228 200 226 244 114 59 354 339 60 70 236 217 164 137 175 168 170 184 160 152 165 316 358 88 210 194 186 190 191 187 187 185 184 186 175 169 185 217
346 343 344 343 344 348 341 298 244 244 252 274 3 15 16 1 352 345 331 298 282 294 287 272 269 257 221 209 200 191 208 224 217 206 193 197 209 210 223 226 223 249 250 213 190 191 213 241 237 225 206 128 85 339 15 57 328 323 63 244 246 202 199 197 147 148 157 301 106 110 75 336 348 170 261 226 191 188 188 189 191 191 191 187 178 178 194 218
346 342 341 342 341 346 344 295 227 243 257 288 0 12 22 7 359 352 337 319 280 282 285 273 260 238 207 197 206 209 239 254 215 198 192 206 221 205 231 234 213 241 257 213 179 195 239 251 233 178 101 63 68 345 305 151 269 338 333 255 229 206 222 148 104 106 99 280 235 126 113 298 276 206 239 251 201 203 193 190 193 192 192 188 182 182 191 206
344 339 338 340 337 343 352 314 246 256 262 279 324 332 357 359 354 347 339 17 312 273 275 237 204 207 196 184 198 214 299 264 194 193 196 210 240 240 265 272 224 254 270 215 159 200 251 259 237 116 99 57 51 345 275 173 127 16 266 243 157 164 183 123 116 120 141 231 226 167 162 264 300 243 231 205 191 218 216 203 201 194 191 189 189 190 191 202
341 337 335 336 335 338 347 328 283 277 277 276 285 307 333 336 335 333 340 39 322 260 218 203 190 197 196 185 192 188 312 201 177 194 205 212 239 217 227 283 289 275 280 35 61 280 243 21 39 75 83 68 57 322 266 158 116 179 248 230 104 93 117 139 142 160 187 207 210 177 145 92 295 261 219 173 187 230 238 225 218 202 195 194 198 199 198 203
339 334 330 332 332 330 334 327 298 290 290 279 277 297 323 321 320 335 66 63 293 237 209 208 192 204 198 191 202 197 174 173 170 231 223 214 225 188 199 256 250 273 276 87 110 263 221 157 150 114 77 75 154 239 257 129 116 220 229 206 210 146 148 158 160 186 203 66 337 208 135 103 275 286 197 154 186 238 235 225 225 214 206 204 206 207 204 201
338 333 326 326 327 320 323 325 305 294 295 278 271 282 315 323 320 12 78 85 237 217 186 181 184 212 199 190 211 208 182 176 185 227 214 203 214 206 236 257 248 282 282 123 160 251 253 209 183 136 112 174 208 242 255 143 174 240 217 105 299 287 139 145 157 178 82 45 256 226 167 148 261 281 178 141 215 250 244 234 229 223 217 216 218 215 208 198
333 332 323 319 322 315 315 323 304 282 289 282 271 278 309 328 4 56 59 257 244 224 171 170 194 191 177 177 230 216 181 197 213 216 206 198 205 216 246 266 266 339 322 358 212 255 256 246 234 136 151 185 199 239 247 212 224 291 19 33 357 353 22 67 118 113 69 325 266 224 166 143 213 259 200 166 222 230 220 233 234 229 226 224 228 225 212 200
328 328 321 315 316 310 310 324 298 276 292 293 289 291 307 336 58 91 202 266 279 234 153 195 239 180 165 172 237 232 151 207 221 202 200 202 193 218 258 294 307 33 359 343 315 287 267 220 257 227 191 176 143 303 312 336 359 50 39 45 32 348 359 22 7 43 86 261 285 201 139 124 129 256 217 211 254 246 199 208 215 218 225 224 228 230 219 208
325 321 317 310 306 302 301 307 274 264 279 289 300 306 347 26 34 186 236 307 311 218 185 203 220 202 191 189 206 221 172 201 229 191 174 196 193 207 199 200 192 44 350 296 290 303 296 188 205 208 223 184 106 37 334 0 33 68 65 64 62 354 5 22 343 8 168 247 291 29 95 87 291 264 220 202 244 302 128 122 229 225 228 225 228 234 227 219
323 316 312 300 297 295 288 291 269 246 254 269 283 53 81 80 232 226 235 297 268 225 239 205 195 188 183 191 220 212 181 201 216 199 180 176 191 229 224 203 165 108 204 241 307 339 354 326 210 97 328 250 117 102 322 347 42 67 82 99 98 59 49 27 312 355 304 266 299 359 65 40 302 333 15 358 337 10 38 38 26 349 275 246 238 240 237 232
321 315 307 294 292 290 273 275 254 228 228 234 158 78 84 141 237 236 225 253 264 258 256 206 197 206 183 201 225 184 173 236 204 178 178 141 149 264 237 181 167 137 136 71 25 31 31 332 253 142 248 215 154 151 163 150 89 97 156 124 110 130 128 169 217 123 268 279 321 359 46 21 298 14 11 349 347 5 15 12 10 13 360 329 278 253 243 240
319 314 303 293 288 270 252 253 235 214 202 194 101 76 154 213 245 235 228 260 290 293 294 302 170 220 295 268 257 195 142 235 213 158 226 148 134 205 144 156 193 142 106 75 7 44 68 258 244 252 222 181 179 189 144 108 62 295 152 96 86 171 142 143 194 177 194 278 345 8 45 254 223 11 336 350 26 18 12 360 355 360 357 352 338 297 258 243
318 312 298 289 278 240 218 223 210 196 184 161 94 104 209 223 229 208 244 287 310 323 329 340 34 85 310 315 289 268 116 127 208 204 274 189 150 165 136 194 210 125 112 125 166 355 25 281 269 315 303 205 176 157 125 111 158 294 47 91 222 178 121 114 259 336 58 75 13 23 58 314 336 8 305 354 20 356 1 355 344 350 356 356 353 339 311 267
321 318 305 289 266 207 180 186 188 181 169 134 118 217 223 239 232 228 295 305 308 314 326 328 337 202 251 307 280 250 136 78 216 203 272 342 18 266 165 178 6 90 130 131 125 228 118 298 297 35 13 305 21 88 80 64 101 100 88 163 228 51 75 96 82 4 35 75 7 36 99 305 332 337 301 347 350 320 325 330 322 340 356 355 350 343 332 313
326 325 322 307 235 190 172 171 175 169 153 113 167 241 232 241 261 283 294 300 310 317 325 289 260 220 208 345 295 266 122 99 245 164 93 3 324 287 106 86 12 16 68 110 87 281 107 347 304 29 30 325 9 67 54 20 45 87 133 146 104 66 36 35 80 69 67 87 4 335 319 238 194 228 286 315 306 290 295 307 313 335 352 348 341 337 333 326
329 328 337 25 189 182 163 164 169 158 134 103 206 247 245 250 272 277 282 293 298 290 280 240 220 16 19 357 292 301 103 179 219 137 126 128 148 276 267 134 30 22 55 88 96 305 72 83 288 336 15 354 9 48 66 2 21 49 80 67 67 118 148 130 124 147 131 131 178 204 291 275 228 217 227 245 254 262 285 308 311 319 337 340 334 333 332 330
334 331 332 5 186 181 158 157 158 141 122 183 201 238 280 279 282 283 289 295 286 269 265 234 168 21 325 307 286 281 217 207 203 165 148 110 112 285 329 108 140 74 71 79 81 21 56 63 301 311 355 17 14 53 180 186 111 59 59 48 41 60 88 93 66 121 125 134 154 146 248 268 251 209 206 235 253 263 274 288 304 316 328 334 332 334 330 323
348 338 318 114 147 169 162 153 156 150 149 216 215 243 278 277 282 292 297 295 285 264 249 234 226 217 202 246 281 261 264 256 184 130 94 111 120 78 342 53 139 129 79 63 55 60 83 64 5 333 357 357 278 272 243 180 150 131 128 145 155 123 86 76 3 313 102 124 160 161 217 268 260 201 206 235 256 271 269 275 302 320 330 331 329 331 330 326
357 337 243 134 142 166 165 151 203 201 163 226 232 232 254 265 273 285 293 295 294 269 241 221 217 232 189 200 244 320 336 292 84 72 58 136 135 147 198 135 104 99 89 62 28 104 130 102 67 354 293 260 271 300 354 97 131 126 125 149 147 120 111 116 164 260 324 39 170 131 154 264 263 201 204 237 254 262 277 309 327 332 338 337 334 332 328 332
343 318 239 163 160 179 178 195 290 238 230 247 242 246 250 253 267 275 281 286 287 273 248 232 181 210 214 173 138 9 334 324 69 81 80 68 116 163 164 111 93 88 88 83 322 11 73 79 65 322 304 303 300 322 14 50 82 77 34 126 137 136 133 141 164 173 149 275 63 66 353 268 278 224 207 234 256 266 296 346 345 341 345 343 340 342 338 334
334 318 268 202 197 200 206 269 237 238 274 263 257 261 256 252 255 262 266 269 270 261 238 264 205 182 237 201 149 199 241 52 69 102 121 68 167 185 133 112 109 99 90 153 174 100 65 72 85 54 356 350 343 349 359 354 23 60 304 288 137 128 108 103 113 95 86 229 163 119 225 259 269 223 212 236 257 268 311 7 0 352 353 350 347 351 349 341
338 324 313 326 300 219 225 233 218 242 282 285 287 277 267 267 267 269 270 267 267 250 193 259 251 179 219 262 92 219 168 159 165 107 106 128 206 251 122 124 125 119 127 145 147 133 135 141 109 107 108 103 325 303 281 296 331 343 314 337 127 131 125 124 105 83 108 237 137 130 206 257 282 253 235 254 272 290 341 11 9 2 360 355 354 357 354 350
355 337 336 340 345 331 268 273 290 308 295 306 300 276 267 271 282 289 287 277 271 254 206 236 252 162 230 228 63 271 226 172 154 141 156 167 203 212 153 144 138 138 142 140 133 117 94 94 121 136 150 175 197 218 230 232 304 309 301 240 143 142 135 116 96 122 179 163 77 189 189 192 263 257 238 262 302 325 338 1 3 360 2 0 360 359 355 357
2 347 5 342 334 355 347 336 352 351 313 315 306 271 280 275 283 299 297 290 273 248 213 224 223 191 232 211 175 281 266 262 126 150 192 184 195 186 149 140 140 147 145 134 131 119 74 37 181 148 170 205 205 220 252 259 240 266 274 235 166 146 130 107 117 197 157 98 325 256 182 164 223 237 212 232 270 283 308 352 359 356 1 2 2 2 1 2
349 327 355 1 321 337 355 333 331 325 311 315 301 268 277 271 272 291 293 302 287 244 199 257 238 214 209 191 155 274 280 312 213 181 223 193 103 78 83 89 151 158 146 129 143 130 92 164 215 173 201 240 225 235 262 268 248 260 249 216 188 144 124 118 154 178 131 119 218 226 171 176 216 227 211 221 231 230 282 358 356 355 360 359 2 5 9 12
2 331 327 342 328 295 299 305 311 311 307 313 297 269 273 265 269 269 255 291 303 255 196 213 240 248 234 188 134 147 217 251 272 263 200 147 96 104 99 341 215 174 136 123 165 131 97 195 228 183 238 294 277 267 297 349 326 314 345 127 135 120 118 125 147 148 120 134 176 154 146 193 227 210 201 206 204 177 116 78 30 4 3 3 8 9 9 11
5 355 325 330 320 293 301 310 317 318 307 308 286 267 288 291 303 309 283 270 296 294 238 231 302 298 269 231 128 171 219 184 183 222 189 153 12 169 161 173 209 192 110 123 181 77 111 212 247 116 49 314 297 309 360 24 29 5 5 40 82 92 94 99 116 115 103 114 136 125 132 226 254 193 178 192 194 152 98 75 46 22 10 17 21 17 12 4
321 297 307 319 307 294 317 318 319 324 302 297 290 295 312 326 342 343 324 297 305 340 106 62 13 360 324 310 113 93 290 243 210 242 213 189 195 190 186 188 178 164 131 144 154 88 120 171 303 75 65 295 295 349 351 2 66 57 358 11 82 87 83 78 88 119 124 131 130 116 136 235 235 176 172 202 162 95 73 48 25 10 5 22 23 20 19 13
307 272 266 303 285 288 327 321 316 321 292 306 331 328 322 328 345 354 335 320 349 4 23 79 64 38 358 351 56 352 326 310 309 337 317 232 207 182 180 186 175 166 153 140 149 152 136 129 130 101 97 260 282 350 343 360 49 26 289 217 129 107 108 106 73 61 114 135 142 159 206 218 191 162 186 219 124 87 71 49 19 347 346 16 25 25 21 22